Regional Weather Roundup
Issued by NWS

Home | Current Version | Previous Version | Text Only | Print | Product List | Glossary Off
Versions: 1 2 3 4 5 6 7 8 9 10 11 12 13 14 15 16 17 18 19 20 21 22 23 24 25 26 27 28 29 30 31 32 33 34 35 36 37 38 39 40 41 42 43 44 45 46 47 48 49 50

000
ASUS43 KMPX 190801
RWRMN
WEATHER ROUNDUP FOR MINNESOTA
NATIONAL WEATHER SERVICE TWIN CITIES/CHANHASSEN MN
300 AM CDT FRI SEP 19 2014


NOTE: "FAIR" INDICATES FEW OR NO CLOUDS BELOW 12,000 FEET WITH NO
SIGNIFICANT WEATHER AND/OR OBSTRUCTIONS TO VISIBILITY. N/A MEANS
CURRENT SKY AND/OR WEATHER CONDITIONS ARE NOT AVAILABLE.

MNZ060>063-068>070-190900-
   Twin Cities Metro

CITY           SKY/WX    TMP DP  RH WIND       PRES   REMARKS
TWIN CITIES    MOCLDY    59  52  77 SE9       29.98F
ST PAUL        MOCLDY    58  54  86 SE12      29.99F
CRYSTAL        MOCLDY    61  52  72 S13       29.95F
BLAINE         MOCLDY    61  54  77 S10       29.96F
LAKEVILLE      PTCLDY    55  52  88 S6        29.98F
EDEN PRAIRIE   PTCLDY    58  53  84 SE12      29.96F
SOUTH ST PAUL  MOCLDY    58  53  84 SE7       29.98F
LAKE ELMO      FAIR      59  54  82 S12       29.99F
$$
MNZ001>005-007-008-013>017-022>024-027-028-190900-
   Northwest Minnesota

CITY           SKY/WX    TMP DP  RH WIND       PRES   REMARKS
BEMIDJI        CLOUDY    62  51  68 S13G23    29.78F
HALLOCK        CLOUDY    66  57  72 S15       29.59F
ROSEAU         CLOUDY    64  55  72 S17G29    29.62F
WARROAD        CLOUDY    63  55  77 S10G20    29.63F
THIEF RVR FALL CLOUDY    66  55  68 S22       29.65F
CROOKSTON      CLOUDY    64  55  72 S24G35    29.66S
FOSSTON        RAIN      61  54  77 S22G31    29.71F
DETROIT LAKES  CLOUDY    63  54  72 S12       29.81F
MOORHEAD       CLOUDY    64  57  77 S14G21    29.73F
PARK RAPIDS    CLOUDY    59  51  75 S10       29.83F
MAHNOMEN       LGT RAIN  61  55  82 S21G26    29.75F
$$
MNZ006-009>011-018-025>026-190900-
   North Central Minnesota

CITY           SKY/WX    TMP DP  RH WIND       PRES   REMARKS
BAUDETTE       CLOUDY    61  53  75 S14G23    29.68F
FLAG ISLAND    CLOUDY    59  55  88 S15       29.63F
INTL FALLS     CLOUDY    56  51  84 S8        29.77F
WASKISH        CLOUDY    61  54  77 S10G21    29.73F
BIG FORK       CLOUDY    57  52  82 S10G20    29.82F
LONGVILLE      CLOUDY    59  52  77 S9        29.84F
GRAND RAPIDS   CLOUDY    55  52  88 S15       29.86F
CRANE LAKE     MOCLDY    52  50  93 S6        29.85F
ORR            MOCLDY    54  48  82 S9        29.82S
COOK           CLOUDY    55  52  88 S8G20     29.86S
WALKER         FAIR      60  50  69 S12G18    29.81F
$$
MNZ012-019>021-037-190900-
   Northeast Minnesota

CITY           SKY/WX    TMP DP  RH WIND       PRES   REMARKS
DULUTH         CLOUDY    53  50  89 S10       29.94F FOG
ELY            MOCLDY    52  48  87 S12       29.89F
HIBBING        CLOUDY    55  52  89 S7        29.89F
EVELETH        CLOUDY    54  52  94 S9        29.90F
DULUTH HARBOR  CLOUDY    52  50  93 E6        29.95F
TWO HARBORS    CLOUDY    46  43  87 E3        29.94F
SILVER BAY     MOCLDY    45  45 100 CALM      29.94F
GRAND MARAIS     N/A     49  44  83 NE3       29.98F
G MARAIS ARPRT CLOUDY    45  41  87 S5        29.97F
$$
MNZ029>031-032-039>041-046>048-054>057-064-190900-
   West Central Minnesota

CITY           SKY/WX    TMP DP  RH WIND       PRES   REMARKS
FERGUS FALLS   CLOUDY    63  52  67 S17G23    29.79F
WHEATON        CLOUDY    59  54  82 SE14G21   29.79F
MORRIS         CLOUDY    61  54  77 S14       29.82F
ALEXANDRIA     CLOUDY    61  51  70 S18G25    29.86F
ELBOW LAKE     FAIR      60  54  79 S21G28    29.80F
WADENA         CLOUDY    61  52  72 S12G18    29.83F
GLENWOOD       CLOUDY    61  52  72 S16G24    29.87F
APPLETON       CLOUDY    63  54  72 S8        29.83F
BENSON         CLOUDY    59  52  77 S12G18    29.85F
ORTONVILLE     CLOUDY    61  54  77 S8        29.81F
MADISON        CLOUDY    64  55  72 S13       29.82F
WILLMAR        FAIR      57  52  82 SE8       29.90F
$$
MNZ033>034-036-042>043-049>051-058-059-190900-
   Central Minnesota

CITY           SKY/WX    TMP DP  RH WIND       PRES   REMARKS
ST CLOUD       MOCLDY    62  52  69 S12       29.91F
SAUK CENTRE    FAIR      59  51  73 S14       29.89S
PAYNESVILLE    PTCLDY    57  50  77 SE10G18   29.90F
AITKIN         CLOUDY    61  54  77 S10       29.88R
PINE RIVER     CLOUDY    57  52  82 S9        29.89F
BRAINERD       CLOUDY    58  50  75 S13       29.88S
STAPLES        CLOUDY    57  48  72 S12       29.85F
LONG PRAIRIE   FAIR      57  50  77 S17       29.89S
LITTLE FALLS   MOCLDY    57  50  77 S7        29.89F
LITCHFIELD     PTCLDY    61  54  77 S6        29.92S
BUFFALO        MOCLDY    59  52  76 SE7       29.94F
MAPLE LAKE     PTCLDY    60  54  82 SE6       29.93F
$$
MNZ037-044-045-052-053-190900-
   East Central Minnesota

CITY           SKY/WX    TMP DP  RH WIND       PRES   REMARKS
MORA           CLOUDY    55  54  94 S8        29.94F
CAMBRIDGE      CLOUDY    61  52  72 S9        29.92F
RUSH CITY      MOCLDY    56  54  93 S5        29.95F
MOOSE LAKE     CLOUDY    54  52  94 S6        29.91F
HINCKLEY       FAIR      57  55  94 S9G17     29.94F
CLOQUET        CLOUDY    48  46  93 SE3       29.93F VSB 3/4
MCGREGOR       CLOUDY    55  54  94 S10G16    29.90F
$$
MNZ071>073-080-081-089-090-097-098-190900-
   Southwest Minnesota

CITY           SKY/WX    TMP DP  RH WIND       PRES   REMARKS
MONTEVIDEO     CLOUDY    61  54  77 S10       29.86F
GRANITE FALLS  CLOUDY    60  54  80 SE15      29.89F
CANBY          CLOUDY    63  54  73 S15G21    29.84F
MARSHALL       MOCLDY    61  52  72 S16G22    29.86S
REDWOOD FALLS  CLOUDY    60  55  83 S13       29.90F
OLIVIA         CLOUDY    57  52  82 S9        29.90S
PIPESTONE      CLOUDY    61  55  82 S21       29.88F
WINDOM         MOCLDY    61  55  82 S17G24    29.92F
WORTHINGTON    MOCLDY    59  55  88 S17G24    29.93F
JACKSON        PTCLDY    59  54  82 S17G23    29.95F
TRACY          MOCLDY    60  56  85 S15G23    29.88F
SLAYTON        CLOUDY    60  56  87 S17       29.91F
$$
MNZ065>067-074>077-082>085-091>093-190900-
   South Central Minnesota

CITY           SKY/WX    TMP DP  RH WIND       PRES   REMARKS
MANKATO        MOCLDY    57  48  72 S9        29.96F
NEW ULM        MOCLDY    57  54  88 S14       29.93F
ST JAMES       MOCLDY    61  54  77 S14       29.95F
FAIRMONT       MOCLDY    59  48  67 S13       29.96F
GLENCOE        PTCLDY    60  51  72 SE9       29.93F
FARIBAULT      PTCLDY    61  52  72 S9        29.99F
OWATONNA       CLEAR     57  52  82 S10G16    30.00S
WASECA         PTCLDY    55  50  82 SE7       30.00F
ALBERT LEA     PTCLDY    57  54  88 S12       30.01S
$$
MNZ078>079-086>088-094>096-190900-
   Southeast Minnesota

CITY           SKY/WX    TMP DP  RH WIND       PRES   REMARKS
ROCHESTER      CLEAR     55  51  86 S13       30.04F
RED WING       PTCLDY    59  54  82 SE7       30.01S
STANTON        PTCLDY    59  52  77 S13       29.98F
DODGE CENTER   CLEAR     55  52  88 S12       30.02F
WINONA         PTCLDY    55  52  88 SE5       30.06S
AUSTIN         PTCLDY    54  52  94 S8        30.02F
PRESTON        CLEAR     54  53  97 S10       30.06F
$$
ABBREVIATIONS USED IN REMARKS
   TC - TEMPERATURES IN CELSIUS
  WCI - WIND CHILL INDEX
   HX - HEAT INDEX
  VSB - VISIBILITY
$$



USA.gov is the U.S. government's official web portal to all federal, state and local government web resources and services.